| time (UTC) | temp F | wind direction | speed MPH | gust MPH | rain 1hr in | rain 24hr in | rain mn in | humidity % | barometer mb |
| 20260503180519 | 55 | 270 | 6.0 | 13.0 | 0.00 | 0.00 | 0.00 | 41 | 1008.1 |
| 20260503175520 | 54 | 270 | 8.0 | 16.0 | 0.00 | 0.00 | 0.00 | 43 | 1008.1 |
| 20260503174519 | 53 | 270 | 8.0 | 19.0 | 0.00 | 0.00 | 0.00 | 43 | 1008.1 |
| 20260503173539 | 53 | 270 | 8.0 | 19.0 | 0.00 | 0.00 | 0.00 | 40 | 1008.2 |
| 20260503172519 | 53 | 270 | 4.0 | 13.0 | 0.00 | 0.00 | 0.00 | 41 | 1008.1 |
| 20260503171519 | 53 | 293 | 5.0 | 15.0 | 0.00 | 0.00 | 0.00 | 42 | 1008.2 |
| 20260503170520 | 53 | 293 | 9.0 | 19.0 | 0.00 | 0.00 | 0.00 | 41 | 1008.1 |
| 20260503150520 | 51 | 293 | 6.0 | 20.0 | 0.00 | 0.00 | 0.00 | 46 | 1008.6 |
| 20260503130520 | 47 | 293 | 6.0 | 12.0 | 0.00 | 0.00 | 0.00 | 57 | 1008.5 |
| 20260503110519 | 45 | 293 | 4.0 | 10.0 | 0.00 | 0.00 | 0.00 | 59 | 1007.9 |
| 20260503081519 | 46 | 0.0 | 2.0 | 0.00 | 0.00 | 0.00 | 59 | 1006.0 | |
| 20260503080539 | 46 | 0.0 | 1.0 | 0.00 | 0.00 | 0.00 | 60 | 1006.0 | |
| 20260503072519 | 47 | 0.0 | 1.0 | 0.00 | 0.00 | 0.00 | 58 | 1006.0 | |
| 20260503071540 | 47 | 0.0 | 1.0 | 0.00 | 0.00 | 0.00 | 57 | 1005.9 | |
| 20260503070540 | 48 | 0.0 | 2.0 | 0.00 | 0.00 | 0.00 | 56 | 1006.0 | |
| 20260503054519 | 49 | 293 | 1.0 | 5.0 | 0.00 | 0.00 | 0.00 | 52 | 1006.4 |
| 20260503053539 | 50 | 270 | 1.0 | 3.0 | 0.00 | 0.00 | 0.00 | 51 | 1006.3 |
| 20260503052539 | 50 | 270 | 1.0 | 7.0 | 0.00 | 0.00 | 0.00 | 51 | 1006.3 |
| 20260503051539 | 50 | 270 | 1.0 | 6.0 | 0.00 | 0.00 | 0.00 | 51 | 1006.5 |
| 20260503050519 | 50 | 270 | 1.0 | 5.0 | 0.00 | 0.00 | 0.00 | 51 | 1006.5 |
| 20260503045519 | 50 | 293 | 1.0 | 4.0 | 0.00 | 0.00 | 0.00 | 50 | 1006.6 |
| 20260503044539 | 51 | 293 | 1.0 | 4.0 | 0.00 | 0.00 | 0.00 | 50 | 1006.7 |
| 20260503043519 | 51 | 293 | 1.0 | 4.0 | 0.00 | 0.00 | 0.00 | 51 | 1006.8 |
| 20260503042519 | 51 | 293 | 1.0 | 3.0 | 0.00 | 0.00 | 0.00 | 51 | 1006.8 |
| 20260503041519 | 51 | 293 | 1.0 | 6.0 | 0.00 | 0.00 | 0.00 | 50 | 1006.9 |
| 20260503040519 | 51 | 0.0 | 1.0 | 0.00 | 0.00 | 0.00 | 51 | 1006.8 | |
| 20260503035519 | 51 | 270 | 1.0 | 2.0 | 0.00 | 0.00 | 0.00 | 51 | 1006.8 |
| 20260503034519 | 51 | 293 | 2.0 | 6.0 | 0.00 | 0.00 | 0.00 | 51 | 1006.7 |
| 20260503033521 | 51 | 270 | 1.0 | 4.0 | 0.00 | 0.00 | 0.00 | 53 | 1006.7 |
| 20260503032600 | 51 | 270 | 1.0 | 3.0 | 0.00 | 0.00 | 0.00 | 53 | 1006.7 |
| 20260503031519 | 51 | 293 | 2.0 | 4.0 | 0.00 | 0.00 | 0.00 | 53 | 1006.6 |
| 20260503030519 | 51 | 270 | 1.0 | 5.0 | 0.00 | 0.00 | 0.00 | 54 | 1006.7 |
| 20260503025519 | 51 | 293 | 2.0 | 6.0 | 0.00 | 0.00 | 0.00 | 54 | 1006.8 |
| 20260503024519 | 52 | 270 | 1.0 | 3.0 | 0.00 | 0.00 | 0.00 | 54 | 1006.7 |
| 20260503023540 | 52 | 293 | 1.0 | 2.0 | 0.00 | 0.00 | 0.00 | 53 | 1006.8 |
| 20260503022522 | 52 | 0.0 | 2.0 | 0.00 | 0.00 | 0.00 | 53 | 1006.9 | |
| 20260503021519 | 52 | 0.0 | 1.0 | 0.00 | 0.00 | 0.00 | 53 | 1006.8 | |
| 20260503020619 | 52 | 0.0 | 1.0 | 0.00 | 0.00 | 0.00 | 51 | 1006.8 | |
| 20260503015519 | 52 | 0.0 | 1.0 | 0.00 | 0.00 | 0.00 | 51 | 1006.6 | |
| 20260503014519 | 53 | 270 | 1.0 | 4.0 | 0.00 | 0.00 | 0.00 | 49 | 1006.8 |
| 20260503013519 | 53 | 270 | 1.0 | 6.0 | 0.00 | 0.00 | 0.00 | 50 | 1006.7 |
| 20260503012519 | 53 | 270 | 1.0 | 4.0 | 0.00 | 0.00 | 0.00 | 49 | 1006.8 |
| 20260503011540 | 53 | 270 | 1.0 | 2.0 | 0.00 | 0.00 | 0.00 | 49 | 1006.8 |
| 20260503010520 | 53 | 0.0 | 2.0 | 0.00 | 0.00 | 0.00 | 48 | 1006.6 | |
| 20260503005519 | 54 | 270 | 1.0 | 4.0 | 0.00 | 0.00 | 0.00 | 47 | 1006.4 |
| 20260503004519 | 54 | 0.0 | 2.0 | 0.00 | 0.00 | 0.00 | 47 | 1006.4 | |
| 20260503003519 | 54 | 270 | 1.0 | 2.0 | 0.00 | 0.00 | 0.00 | 46 | 1006.3 |
| 20260503002519 | 55 | 270 | 1.0 | 4.0 | 0.00 | 0.00 | 0.00 | 45 | 1006.1 |
| 20260503001519 | 55 | 293 | 1.0 | 4.0 | 0.00 | 0.00 | 0.00 | 44 | 1006.1 |
| 20260503000520 | 56 | 270 | 1.0 | 5.0 | 0.00 | 0.00 | 0.00 | 44 | 1005.9 |
| 20260502235540 | 56 | 270 | 2.0 | 5.0 | 0.00 | 0.00 | 0.00 | 43 | 1006.0 |
| 20260502234520 | 57 | 0.0 | 5.0 | 0.00 | 0.00 | 0.00 | 44 | 1005.9 | |
| 20260502233540 | 57 | 0.0 | 4.0 | 0.00 | 0.00 | 0.00 | 41 | 1005.9 | |
| 20260502232519 | 58 | 293 | 2.0 | 7.0 | 0.00 | 0.00 | 0.00 | 39 | 1006.0 |
| 20260502231520 | 59 | 270 | 2.0 | 5.0 | 0.00 | 0.00 | 0.00 | 39 | 1006.1 |
| 20260502230519 | 59 | 270 | 2.0 | 5.0 | 0.00 | 0.00 | 0.00 | 38 | 1006.0 |
| 20260502225519 | 59 | 293 | 2.0 | 5.0 | 0.00 | 0.00 | 0.00 | 40 | 1005.9 |
| 20260502224519 | 58 | 270 | 1.0 | 4.0 | 0.00 | 0.00 | 0.00 | 40 | 1005.9 |
| 20260502223520 | 58 | 270 | 2.0 | 7.0 | 0.00 | 0.00 | 0.00 | 40 | 1005.9 |
| 20260502222520 | 59 | 270 | 2.0 | 5.0 | 0.00 | 0.00 | 0.00 | 41 | 1005.8 |
| 20260502221519 | 58 | 270 | 2.0 | 7.0 | 0.00 | 0.00 | 0.00 | 42 | 1005.8 |
| 20260502220540 | 59 | 270 | 2.0 | 7.0 | 0.00 | 0.00 | 0.00 | 41 | 1005.9 |
| 20260502215519 | 60 | 293 | 2.0 | 8.0 | 0.00 | 0.00 | 0.00 | 39 | 1006.0 |
| 20260502214519 | 60 | 293 | 2.0 | 6.0 | 0.00 | 0.00 | 0.00 | 42 | 1006.0 |
| 20260502213519 | 60 | 270 | 2.0 | 4.0 | 0.00 | 0.00 | 0.00 | 42 | 1005.9 |
| 20260502212519 | 60 | 293 | 6.0 | 12.0 | 0.00 | 0.00 | 0.00 | 38 | 1005.9 |
| 20260502211519 | 60 | 270 | 4.0 | 9.0 | 0.00 | 0.00 | 0.00 | 39 | 1005.7 |
| 20260502210519 | 61 | 270 | 3.0 | 6.0 | 0.00 | 0.00 | 0.00 | 37 | 1005.5 |
| 20260502205539 | 61 | 270 | 4.0 | 8.0 | 0.00 | 0.00 | 0.00 | 35 | 1005.4 |
| 20260502204519 | 61 | 225 | 2.0 | 8.0 | 0.00 | 0.00 | 0.00 | 39 | 1005.3 |
| 20260502203519 | 60 | 270 | 4.0 | 7.0 | 0.00 | 0.00 | 0.00 | 39 | 1005.7 |
| 20260502202519 | 60 | 270 | 4.0 | 8.0 | 0.00 | 0.00 | 0.00 | 41 | 1005.7 |
| 20260502201539 | 60 | 293 | 3.0 | 9.0 | 0.00 | 0.00 | 0.00 | 43 | 1005.7 |
| 20260502200519 | 60 | 68 | 4.0 | 8.0 | 0.00 | 0.00 | 0.00 | 42 | 1005.9 |
| 20260502195519 | 60 | 293 | 3.0 | 11.0 | 0.00 | 0.00 | 0.00 | 43 | 1006.0 |
| 20260502194519 | 61 | 270 | 4.0 | 12.0 | 0.00 | 0.00 | 0.00 | 42 | 1006.1 |
| 20260502193519 | 61 | 225 | 2.0 | 8.0 | 0.00 | 0.00 | 0.00 | 45 | 1006.1 |
| 20260502192519 | 60 | 270 | 4.0 | 8.0 | 0.00 | 0.00 | 0.00 | 45 | 1006.5 |
| 20260502191519 | 60 | 293 | 6.0 | 13.0 | 0.00 | 0.00 | 0.00 | 46 | 1006.5 |
| 20260502190519 | 60 | 113 | 2.0 | 7.0 | 0.00 | 0.00 | 0.00 | 49 | 1006.6 |
| 20260502185559 | 59 | 270 | 3.0 | 9.0 | 0.00 | 0.00 | 0.00 | 50 | 1006.9 |
| 20260502184519 | 59 | 293 | 6.0 | 13.0 | 0.00 | 0.00 | 0.00 | 48 | 1006.9 |
| 20260502183539 | 58 | 270 | 2.0 | 6.0 | 0.00 | 0.00 | 0.00 | 48 | 1007.0 |
| 20260502182519 | 59 | 270 | 3.0 | 8.0 | 0.00 | 0.00 | 0.00 | 51 | 1007.0 |
| 20260502181519 | 58 | 270 | 3.0 | 9.0 | 0.00 | 0.00 | 0.00 | 52 | 1006.9 |